CDT,Max TemperatureF,Mean TemperatureF,Min TemperatureF,Max Dew PointF,MeanDew PointF,Min DewpointF,Max Humidity, Mean Humidity, Min Humidity, Max Sea Level PressureIn, Mean Sea Level PressureIn, Min Sea Level PressureIn, Max VisibilityMiles, Mean VisibilityMiles, Min VisibilityMiles, Max Wind SpeedMPH, Mean Wind SpeedMPH, Max Gust SpeedMPH,PrecipitationIn, CloudCover, Events, WindDirDegrees
2013-7-1,80,68,57,59,53,47,93,60,32,30.05,30.02,29.97,10,10,10,14,6,23,0.00,1,,353
2013-7-2,80,67,54,54,50,45,93,57,29,30.09,30.06,30.03,10,10,10,14,4,20,0.00,0,,7
2013-7-3,84,70,57,56,50,43,87,50,26,30.12,30.07,30.01,10,9,0,10,3,,0.00,0,,119
2013-7-4,84,72,61,57,54,49,78,52,29,30.07,30.03,29.97,10,10,10,9,5,,0.00,1,,112
2013-7-5,89,76,64,60,56,52,81,52,28,30.05,29.99,29.94,10,10,6,12,7,20,0.00,0,,128
2013-7-6,90,79,68,63,59,54,78,54,29,30.03,29.98,29.94,10,10,10,14,7,,0.01,0,,132
2013-7-7,91,80,69,66,62,54,87,57,29,30.05,30.01,29.99,10,10,10,14,8,20,0.00,0,,141
2013-7-8,91,82,72,68,65,62,78,57,37,30.10,30.06,30.02,10,10,10,12,7,16,0.00,1,,154
2013-7-9,95,84,73,68,67,65,82,56,37,30.09,30.03,29.96,10,10,10,16,9,30,0.00,0,,195
2013-7-10,97,86,75,69,66,64,72,52,34,30.02,29.97,29.89,10,10,10,14,8,,0.00,0,,214
2013-7-11,95,84,72,72,65,57,87,59,32,30.01,29.98,29.93,10,10,10,13,5,41,0.00,1,,60
2013-7-12,91,81,71,65,61,58,70,52,36,30.05,30.00,29.97,10,10,10,13,10,18,0.00,0,,103
2013-7-13,87,76,66,61,56,53,73,49,32,30.06,30.01,29.97,10,10,10,10,7,,0.00,0,,107
2013-7-14,87,78,68,62,56,49,76,49,27,30.06,30.01,29.98,10,10,10,14,8,20,0.00,0,,103
2013-7-15,91,80,70,69,64,58,93,64,33,30.17,30.11,30.05,10,10,10,20,9,25,0.05,3,Rain-Thunderstorm,89
2013-7-16,86,78,70,70,68,64,87,75,53,30.28,30.23,30.17,10,10,10,16,7,25,0.00,1,Rain-Thunderstorm,90
2013-7-17,91,81,71,70,66,59,93,62,34,30.32,30.26,30.19,10,10,10,10,5,,0.00,1,,111
2013-7-18,93,82,71,68,66,62,90,59,37,30.22,30.13,30.04,10,10,8,9,3,,0.00,2,,219
2013-7-19,93,83,73,69,66,62,79,62,35,30.05,29.99,29.94,10,10,10,16,6,,0.00,1,,185
2013-7-20,93,81,69,69,67,64,91,71,37,29.99,29.94,29.83,10,10,7,15,7,22,0.10,3,Rain-Thunderstorm,196
2013-7-21,81,75,69,74,70,66,93,87,77,29.98,29.92,29.85,10,9,4,13,4,,0.25,5,Rain,155
2013-7-22,89,78,66,72,66,62,94,78,52,30.02,29.93,29.85,10,9,2,29,11,45,1.65,5,Rain-Thunderstorm,169
2013-7-23,93,81,69,75,70,66,94,71,47,29.94,29.88,29.80,10,9,1,36,11,59,0.96,3,Rain-Thunderstorm,204
2013-7-24,84,76,68,70,68,65,94,82,56,30.05,29.99,29.88,10,10,7,22,10,40,0.77,6,Rain-Thunderstorm,326
2013-7-25,84,76,68,70,67,64,90,73,51,30.13,30.07,30.02,10,9,1,9,5,,0.02,0,,93
2013-7-26,73,70,66,70,68,64,94,89,79,30.09,30.05,30.00,10,8,2,9,5,,0.69,7,Rain,134
2013-7-27,78,70,64,66,63,57,100,92,48,30.09,30.06,30.02,10,3,0,8,2,,0.00,6,Fog,343
2013-7-28,73,,73,61,61,61,65,65,65,30.05,30.05,30.05,10,10,10,5,5,,0.00,6,,120
2013-7-29,84,83,82,84,71,68,100,67,58,30.07,30.04,30.02,10,10,10,16,13,22,0.00,4,,176
2013-7-30,86,78,71,68,68,66,88,75,55,30.08,30.06,30.03,10,8,3,15,8,,0.00,6,Rain-Thunderstorm,240
2013-7-31,87,78,69,72,70,67,100,71,57,30.10,30.08,30.04,10,9,5,12,4,17,0.00,2,,360